User: anonymous   Login
Location: Boston
(42.3580°N, 71.0600°W)
Time: 12:44:26
(UTC-04:00)
Language:

SPROUT - Orbit

View from above orbital plane
View from above orbital plane
View from above satellite
View from above satellite

Ground track
Ground track

The orbit data is extracted from the following two-line orbital elements,

1 39770U 14029E   18203.18386864  .00000454  00000-0  56896-4 0  9991
2 39770  97.8789 303.9428 0010571  93.0162 267.2272 14.86902250225565
Epoch (UTC): 22 July 2018 04:24:46
Eccentricity: 0.0010571
inclination: 97.8789°
perigee height: 600 km
apogee height: 615 km
right ascension of ascending node: 303.9428°
argument of perigee: 93.0162°
revolutions per day: 14.86902250
mean anomaly at epoch: 267.2272°
orbit number at epoch: 22556

The dashed part of the orbit path shows where the satellite is in the earth's shadow,  

DLR